User: anonymous   Login
Location: Unspecified
(0.0000°N, 0.0000°E)
Time: 07:23:45
(UTC+00:00)
Language:

Orbcomm A3 (FM07) - Orbit

View from above orbital plane
View from above orbital plane
View from above satellite
View from above satellite

Ground track
Ground track

The orbit data is extracted from the following two-line orbital elements,

1 25119U 97084H   19083.12293462  .00000071  00000-0  68672-4 0  9997
2 25119  45.0170  47.7537 0006149 291.8615  68.1579 14.38859102113183
Epoch (UTC): 24 March 2019 02:57:01
Eccentricity: 0.0006149
inclination: 45.0170°
perigee height: 758 km
apogee height: 766 km
right ascension of ascending node: 47.7537°
argument of perigee: 291.8615°
revolutions per day: 14.38859102
mean anomaly at epoch: 68.1579°
orbit number at epoch: 11318

The dashed part of the orbit path shows where the satellite is in the earth's shadow,  

DLR